Decatur, IL

2:23 AM CST on February 24, 2017 (GMT -0600)
Decatur

Weather History for KDEC - November, 2012

Change the Weather History Date:

Saturday, November 10, 2012

  Actual Average Record
Temperature  
Mean Temperature 64 °F 46 °F  
Max Temperature 73 °F 55 °F 75 °F (1999)
Min Temperature 54 °F 37 °F 23 °F (2008)
Degree Days  
Heating Degree Days 1 19  
Month to date heating degree days 200 176  
Since 1 July heating degree days 661 594  
Cooling Degree Days 0 0  
Month to date cooling degree days 0 0  
Year to date cooling degree days 1427 1048  
Growing Degree Days 14 (Base 50)    
Moisture  
Dew Point 51 °F    
Average Humidity 67    
Maximum Humidity 89    
Minimum Humidity 44    
Precipitation  
Precipitation 0.00 in 0.11 in 0.59 in (2006)
Month to date precipitation 0.35 1.08  
Year to date precipitation 23.05 33.56  
Sea Level Pressure  
Sea Level Pressure 29.99 in    
Wind  
Wind Speed 18 mph (South)    
Max Wind Speed 26 mph    
Max Gust Speed 33 mph    
Visibility 10 miles    
Events      
T = Trace of Precipitation, MM = Missing Value Source: NWS Daily Summary

Daily Weather History Graph

Daily Weather History Graph

Search for Another Location

Airport or City:

Trip Planner

Search our weather history database for the weather conditions in past years. The results will help you decide how hot, cold, wet, or windy it might be!

Date:

Astronomy

Nov. 10, 2012 Rise Set
Actual Time 6:35 AM CST 4:43 PM CST
Civil Twilight 6:06 AM CST 5:11 PM CST
Nautical Twilight 5:34 AM CST 5:44 PM CST
Astronomical Twilight 5:02 AM CST 6:16 PM CST
Moon 2:40 AM CST (11/10) 2:29 PM CST (11/10)
Length of Visible Light 11h 05m
Length of Day
10h 08m
Waning Crescent, 14% of the Moon is Illuminated
Nov 10
Waning Crescent
Nov 13
New
Nov 20
First Quarter
Nov 28
Full
Dec 6
Last Quarter

Hourly Weather History & Observations

Time (CST) Temp. Dew Point Humidity Pressure Visibility Wind Dir Wind Speed Gust Speed Precip Events Conditions
12:54 AM 57.9 °F 53.1 °F 84% 30.01 in 10.0 mi SSW 12.7 mph - N/A   Clear
1:54 AM 57.0 °F 53.1 °F 87% 30.02 in 10.0 mi SSW 10.4 mph - N/A   Scattered Clouds
2:54 AM 55.9 °F 51.1 °F 84% 30.01 in 10.0 mi SSW 11.5 mph - N/A   Clear
3:54 AM 54.0 °F 50.0 °F 86% 30.01 in 10.0 mi South 13.8 mph - N/A   Mostly Cloudy
4:54 AM 55.0 °F 48.9 °F 80% 30.02 in 10.0 mi South 12.7 mph - N/A   Overcast
5:54 AM 55.0 °F 48.0 °F 77% 30.02 in 10.0 mi South 13.8 mph - N/A   Mostly Cloudy
6:54 AM 55.0 °F 46.9 °F 74% 30.02 in 10.0 mi South 15.0 mph - N/A   Clear
7:54 AM 57.0 °F 48.0 °F 72% 30.03 in 10.0 mi South 17.3 mph - N/A   Clear
8:54 AM 59.0 °F 50.0 °F 72% 30.01 in 10.0 mi South 18.4 mph - N/A   Partly Cloudy
9:54 AM 63.0 °F 53.1 °F 70% 30.00 in 10.0 mi South 16.1 mph - N/A   Clear
10:54 AM 66.9 °F 55.0 °F 66% 29.98 in 10.0 mi South 20.7 mph 27.6 mph N/A   Clear
11:54 AM 71.1 °F 55.0 °F 57% 29.96 in 10.0 mi SSW 18.4 mph 25.3 mph N/A   Clear
12:54 PM 72.0 °F 54.0 °F 53% 29.95 in 10.0 mi SSW 21.9 mph 27.6 mph N/A   Clear
1:54 PM 73.0 °F 51.1 °F 46% 29.92 in 10.0 mi South 26.5 mph 31.1 mph N/A   Clear
2:54 PM 73.0 °F 50.0 °F 44% 29.93 in 10.0 mi South 19.6 mph 31.1 mph N/A   Clear
3:54 PM 71.1 °F 50.0 °F 47% 29.94 in 10.0 mi South 18.4 mph 28.8 mph N/A   Clear
4:54 PM 66.9 °F 52.0 °F 59% 29.95 in 10.0 mi South 20.7 mph 27.6 mph N/A   Clear
5:54 PM 64.0 °F 53.1 °F 67% 29.98 in 10.0 mi South 16.1 mph - N/A   Clear
6:54 PM 64.0 °F 53.1 °F 67% 29.99 in 10.0 mi South 20.7 mph - N/A   Clear
7:54 PM 63.0 °F 53.1 °F 70% 30.00 in 10.0 mi South 18.4 mph 26.5 mph N/A   Clear
8:54 PM 62.1 °F 52.0 °F 70% 29.99 in 10.0 mi South 20.7 mph 26.5 mph N/A   Clear
10:54 PM 61.0 °F 48.9 °F 64% 29.96 in 10.0 mi South 20.7 mph 26.5 mph N/A   Clear
11:54 PM 61.0 °F 48.0 °F 62% 29.96 in 10.0 mi South 20.7 mph 26.5 mph N/A   Clear